Terug naar catalogus

KUIPER-00249

ActiefCommunicatieLEO
NORAD 67154·PAYLOAD·🇺🇸 United States

Gelanceerd Dec 15, 2025 vanaf Cape Canaveral Space Force Station

Loading…

Volgende Passages (komende 24 uur)

TLE

VersSource: CelesTrak SupGP

Epoch: Sep 14, 2026, 20:33 UTC

1 67154C 25301X   26257.85675926 -.00000020  00000+0 -26093-5 0  2579
2 67154  51.8985 299.1422 0000370  57.4696 133.8928 14.79926966    11

Volg KUIPER-00249 in realtime met AllMySat

Download on the App Store